Location: Avoca
(45.7167°N, 74.7000°W)
Time: 14:39:25
(UTC+00:00)

BlueWalker 3 - Visible Passes

Search period start: 27 November 2022 00:00
Search period end: 07 December 2022 00:00
Orbit: 500 x 519 km, 53.2° (Epoch: 27 November)

Date Brightness Start Highest point End Pass type
(mag) Time Alt. Az. Time Alt. Az. Time Alt. Az.
27 Nov 4.3 00:10:38 10° WNW 00:12:17 20° NW 00:12:17 20° NW visible
27 Nov 2.1 22:12:42 10° WSW 22:16:37 71° NNW 22:19:52 14° NE visible
27 Nov 3.8 23:52:20 10° WNW 23:54:42 25° NW 23:54:42 25° NW visible
28 Nov 2.2 21:54:23 10° WSW 21:58:17 68° NNW 22:02:11 10° NE visible
28 Nov 3.5 23:34:01 10° WNW 23:37:05 28° NNW 23:37:05 28° NNW visible
29 Nov 3.3 23:15:42 10° WNW 23:19:08 28° N 23:19:26 28° N visible
30 Nov 3.3 22:57:23 10° WNW 23:00:47 28° N 23:01:47 25° NNE visible
01 Dec 3.3 22:39:03 10° WNW 22:42:27 27° N 22:44:08 20° NNE visible
02 Dec 4.8 00:18:19 10° NW 00:18:57 14° NW 00:18:57 14° NW visible
02 Dec 3.3 22:20:43 10° WNW 22:24:07 27° N 22:26:29 16° NE visible
02 Dec 4.3 23:59:57 10° NW 00:01:18 19° NW 00:01:18 19° NW visible
03 Dec 3.3 22:02:23 10° WNW 22:05:46 27° N 22:08:51 12° NE visible
03 Dec 3.7 23:41:34 10° NW 23:43:40 25° NNW 23:43:40 25° NNW visible
04 Dec 3.3 21:44:01 10° WNW 21:47:24 27° N 21:50:46 10° NE visible
04 Dec 3.1 23:23:11 10° NW 23:26:05 32° N 23:26:05 32° N visible
05 Dec 2.7 23:04:48 10° NW 23:08:27 37° NNE 23:08:32 37° NNE visible
06 Dec 2.6 22:46:24 10° NW 22:50:05 38° NNE 22:51:04 32° NE visible
